Terug naar catalogus

HJS-9D

ActiefWetenschapVLEO
NORAD 68834·PAYLOAD·🇨🇳 China

Gelanceerd Apr 24, 2026 vanaf Xichang Satellite Launch Center

Loading…

Volgende Passages (komende 24 uur)

TLE

VersSource: Space-Track

Epoch: Sep 14, 2026, 11:26 UTC

1 68834U 26091D   26257.47666423  .00006624  00000-0  32360-3 0  9992
2 68834  55.0031 351.4945 0012939 323.0570  36.9557 15.19377449 21772

Volg HJS-9D in realtime met AllMySat

Download on the App Store